Overview Statistics Trail Chart Weather Telemetry Raw packets
 

This is the latest recevied weather packets stored in our database for station/object KC5TIL. If no packets are shown the sender has not sent any weather packets the latest 10 day(s).

<< 20 21 22 23 24 25 26 >>
Time Temp. Humidity Pressure Rain* Wind** Luminosity Snow
1788471581 33.33° C 62% 1011.8 hPa 0 mm - 439 W/m² -
1788471277 33.33° C 62% 1011.8 hPa 0 mm - 443 W/m² -
1788470972 33.33° C 62% 1011.7 hPa 0 mm - 475 W/m² -
1788470668 32.78° C 64% 1011.8 hPa 0 mm - 497 W/m² -
1788470362 32.22° C 66% 1012 hPa 0 mm - 252 W/m² -
1788470058 32.78° C 64% 1012.1 hPa 0 mm - 506 W/m² -
1788469754 33.33° C 63% 1011.8 hPa 0 mm - 542 W/m² -
1788469454 32.78° C 62% 1012.1 hPa 0 mm - 337 W/m² -
1788469149 33.33° C 63% 1012.1 hPa 0 mm - 277 W/m² -
1788468849 33.89° C 60% 1012.3 hPa 0 mm - 346 W/m² -
1788468543 33.33° C 61% 1012.4 hPa 0 mm - 589 W/m² -
1788468239 32.78° C 64% 1012.5 hPa 0 mm - 276 W/m² -
1788467935 32.78° C 62% 1012.7 hPa 0 mm - 247 W/m² -
1788467630 33.33° C 62% 1012.2 hPa 0 mm - 327 W/m² -
1788467329 32.22° C 64% 1012.5 hPa 0 mm - 336 W/m² -
1788467026 32.78° C 64% 1012.6 hPa 0 mm - 322 W/m² -
1788466725 33.33° C 61% 1012.5 hPa 0 mm - 594 W/m² -
1788466421 32.78° C 65% 1012.6 hPa 0 mm - 560 W/m² -
1788466120 34.44° C 61% 1012.6 hPa 0 mm - 343 W/m² -
1788465815 32.78° C 63% 1012.6 hPa 0 mm - 510 W/m² -
1788465510 32.78° C 64% 1012.4 hPa 0 mm - 466 W/m² -
1788465206 33.33° C 63% 1012.8 hPa 0 mm - 629 W/m² -
1788464901 32.78° C 63% 1012.7 hPa 0 mm - 631 W/m² -
1788464597 33.33° C 62% 1012.8 hPa 0 mm - 544 W/m² -
1788464292 32.78° C 64% 1012.8 hPa 0 mm - 551 W/m² -

* Rain latest hour (hover to see other rain measurements)
** Current wind speed in m/s (hover to see current wind gust speed)